Powrót do katalogu

REX

AktywnyMilitariaPO
NORAD 21527·PAYLOAD·🇺🇸 United States

Wystrzelony Jun 29, 1991 z Vandenberg Space Force Base

Loading…

Następne Przeloty (najbliższe 24 godziny)

TLE

ŚwieżeSource: Space-Track

Epoka: Sep 14, 2026, 00:06 UTC

1 21527U 91045A   26257.00432633  .00000093  00000-0  34162-4 0  9991
2 21527  89.5280 255.4109 0070415  56.0997 304.6866 14.23597475827737

Śledź REX w czasie rzeczywistym z AllMySat

Download on the App Store